SCP
0 0 0 0 0 0 0 0 0 0 0 0 0 0 0 -0 0 0 0 0 0 0 0 0 0 0 1 0 1 0 0 0 0 0 0 0 0 0 0 0 0 0 0 0
0 0 0 0 0 0 0 0 0 0 0 0 0 0 0 0 0 0 0 0 0 0 0 0 0 0 1 0 1 1 1 0 1 1 0 0 0 0 0 0 0 0 0 0
0 0 0 0 0 0 0 0 0 0 0 0 0 0 0 0 0 0 0 0 0 0 0 0 0 0 1 1 1 1 1 1 1 2 2 2 2 2 1 1 1 1 0 0
0 0 0 0 0 0 0 0 0 0 0 0 0 0 0 0 0 0 0 0 0 0 0 0 0 0 1 1 1 1 1 1 1 3 4 3 2 2 2 1 1 2 1 1
0 0 0 0 0 0 0 0 0 0 0 0 0 0 -0 -0 0 0 0 0 0 0 0 0 0 0 1 1 1 1 1 1 2 2 3 4 4 5 4 5 2 3 3 2
0 0 0 0 0 0 0 0 0 0 0 0 0 0 -0 0 0 0 0 0 0 0 0 0 0 0 0 2 2 2 2 1 2 3 3 3 4 4 5 6 5 5 4 3
0 -0 0 0 0 0 0 0 0 0 0 0 0 0 0 0 0 0 0 0 0 0 0 0 0 0 0 2 2 2 2 1 2 3 5 3 3 3 3 5 7 5 4 4
0 0 0 0 0 0 0 0 0 0 0 0 0 0 0 0 0 0 0 0 0 0 0 0 0 0 0 1 3 3 2 2 2 3 4 5 3 5 6 5 4 3 3 2
0 0 0 0 0 0 0 0 0 0 0 0 0 0 0 0 0 0 0 0 0 0 0 0 0 0 0 0 5 4 3 2 2 2 3 5 3 5 4 3 2 1 1 1
0 0 0 0 0 0 0 0 0 0 0 0 0 0 -0 0 0 0 0 0 0 0 0 0 0 0 0 0 4 5 4 3 4 4 6 5 3 3 3 2 1 1 0 0
-0 0 -0 0 0 0 0 0 0 0 0 0 0 0 0 -0 0 0 0 0 0 0 0 0 0 0 0 0 1 7 7 7 8 9 7 4 2 2 2 2 1 0 0 0
-0 0 0 0 0 0 0 0 0 0 0 0 0 -0 0 0 0 0 0 0 0 0 0 -0 0 0 0 0 0 5 10 10 9 8 5 3 2 2 1 0 0 0 0 0
-0 0 0 -0 0 0 0 0 0 0 0 0 0 -0 0 0 -0 -0 0 0 0 0 0 0 -0 0 0 0 0 5 11 11 9 6 3 2 1 0 0 0 0 0 0 0
0 0 0 0 -0 0 0 -0 0 0 0 0 -0 0 0 0 -0 -0 -0 -0 0 0 0 1 0 0 0 0 1 6 8 6 4 1 0 0 0 0 0 0 0 0 0 0
-0 0 -0 -0 -0 -0 -0 0 -0 -0 0 -0 0 -0 0 0 0 0 0 0 0 0 0 0 1 0 0 1 5 6 4 1 0 0 0 0 0 0 0 0 0 0 0 0
-0 -0 0 -0 -0 -0 0 0 0 -0 -0 -0 -0 -0 -0 0 0 0 -0 0 0 0 0 0 3 3 3 5 4 3 1 0 0 0 0 0 0 0 0 0 0 0 0 0
0 -0 -0 -0 0 0 0 -0 0 -0 -0 -0 -0 -0 -0 0 0 0 -0 0 0 0 1 2 2 3 2 2 2 0 0 0 0 0 0 0 0 0 0 0 0 0 0 0
0 0 -0 -0 -0 0 0 -0 -0 -0 -0 -0 -0 0 -0 0 0 0 0 0 0 0 0 0 0 0 0 0 0 0 0 0 0 0 0 0 0 0 0 0 0 0 0 0
-0 0 0 0 0 -0 0 -0 0 -0 0 -0 -0 0 -0 -0 -0 -0 -0 -0 0 0 0 0 0 0 0 0 0 0 0 0 0 0 0 0 0 0 0 0 0 0 0 0
0 -0 0 0 0 0 0 -0 -0 0 0 -0 -0 0 0 0 0 0 -0 -0 0 0 0 0 0 0 0 0 0 0 0 0 0 0 0 0 0 0 0 0 0 0 0 0
0 0 0 0 0 0 0 -0 -0 0 0 -0 -0 0 0 0 0 0 -0 -0 -0 -0 -0 0 0 0 0 0 0 0 0 0 0 0 0 0 0 0 0 0 0 0 0 0
0 0 0 0 0 0 -0 -0 0 0 0 0 0 -0 -0 0 -0 0 0 -0 -0 -0 -0 -0 -0 -0 0 0 0 0 0 0 0 0 0 0 0 0 0 0 0 0 0 0
0 0 0 0 0 0 -0 0 -0 -0 0 0 -0 -0 -0 -0 -0 0 0 0 -0 -0 -0 -0 -0 -0 0 0 0 0 0 0 0 0 0 0 0 0 0 0 0 0 0 0
0 0 0 0 0 0 -0 -0 -0 -0 0 -0 -0 -0 -0 -0 -0 -0 -0 -0 0 0 0 -0 -0 -0 0 0 0 0 0 0 0 0 0 0 0 0 0 0 0 0 0 0
0 0 0 0 0 0 -0 -0 -0 -0 -0 -0 -0 -0 -0 -0 -0 -0 -0 -0 0 0 -0 -0 -0 0 0 0 0 0 0 0 0 0 0 0 0 0 0 0 0 0 0 0
0 0 0 0 -0 0 -0 -0 -0 -0 -0 0 -0 -0 -0 -0 -0 -0 -0 -0 0 0 0 -0 -0 0 0 0 0 0 0 0 0 0 0 0 0 0 0 0 0 0 0 0
Wind_Speed_500mb
12 8 23 15 21 22 16 25 28 22 13 14 30 42 23 14 30 27 48 56 56 54 53 61 76 88 94 88 85 87 87 81 78 79 76 74 70 64 58 57 45 43 39 35
5 21 20 26 20 21 21 26 32 30 30 27 41 55 32 24 28 32 42 55 65 67 58 52 75 76 88 92 92 97 93 88 82 78 73 73 70 65 56 50 50 43 40 37
28 17 27 23 27 27 28 28 26 21 23 24 33 49 29 18 28 47 54 46 58 74 75 65 60 79 88 88 88 90 97 95 89 80 76 74 68 65 61 58 56 53 46 43
14 6 22 21 19 17 25 22 18 23 7 10 9 28 20 11 25 21 40 53 58 64 76 82 77 71 85 82 76 81 88 98 97 89 83 82 78 74 73 67 62 58 53 41
14 22 21 24 25 14 30 10 8 16 12 5 9 8 8 13 14 17 20 50 55 56 62 80 84 83 80 78 80 81 76 91 104 99 89 86 81 73 72 69 59 54 51 44
28 9 6 12 23 22 3 7 2 2 9 11 23 14 19 18 19 13 13 40 45 47 41 59 74 79 87 85 83 84 87 84 99 104 94 93 84 74 74 66 70 65 58 48
22 30 18 18 35 21 9 9 3 7 12 12 17 15 33 17 19 22 23 39 59 57 51 48 57 73 90 92 86 86 90 96 101 106 103 102 90 78 73 72 76 75 66 48
7 11 18 25 44 25 18 26 10 13 7 5 3 11 24 32 28 45 49 55 56 65 62 53 53 65 71 85 85 90 87 93 100 101 104 103 89 80 75 68 69 67 63 52
9 10 14 13 10 13 9 16 20 8 4 2 9 14 34 13 22 15 24 45 45 45 51 51 56 60 73 82 76 82 91 93 92 103 102 102 96 81 65 52 49 48 38 40
10 12 17 11 7 9 10 9 7 3 9 9 10 11 27 6 5 6 7 14 26 33 44 43 44 52 67 80 84 77 79 89 92 104 104 99 101 67 58 48 55 46 34 33
14 14 8 6 9 4 3 3 5 6 6 9 3 14 10 15 8 8 12 22 33 41 49 54 56 52 46 58 79 86 84 83 88 99 103 100 69 67 56 49 45 43 36 43
6 10 8 13 7 4 4 1 8 7 7 8 5 21 9 11 10 10 14 32 38 44 57 58 57 54 56 63 69 86 88 82 79 88 97 82 68 64 60 54 46 44 44 44
8 5 7 12 12 7 8 2 4 5 1 18 5 12 8 11 12 15 13 35 36 39 49 49 51 63 62 66 71 75 91 91 93 92 92 78 69 65 60 54 52 51 47 48
13 8 9 8 6 3 6 10 8 9 6 7 21 40 26 20 22 17 14 36 39 31 33 39 46 57 68 71 79 77 81 83 90 90 86 81 74 66 61 58 57 55 53 48
5 9 6 16 20 19 25 30 27 25 28 19 16 18 26 17 16 14 27 42 43 30 31 22 36 54 64 70 73 84 86 85 90 86 89 83 76 70 62 62 55 52 44 42
11 7 7 10 23 20 25 21 21 27 30 30 33 48 36 29 18 15 32 27 18 11 29 21 40 60 71 81 88 96 92 93 96 93 92 88 80 72 72 66 60 55 49 43
9 4 6 8 13 22 15 9 12 17 25 23 30 25 22 6 6 8 16 3 13 32 23 37 53 66 72 70 88 102 97 100 100 92 90 85 86 76 76 69 62 51 46 38
11 4 6 9 13 5 8 18 17 28 16 16 15 6 11 15 22 33 23 14 10 43 52 43 77 74 69 73 89 95 99 108 108 105 99 91 84 82 75 64 56 51 41 32
29 10 6 6 4 15 0 9 14 14 13 32 7 15 19 28 38 39 38 34 31 54 39 56 79 84 83 79 78 84 97 107 110 111 105 94 87 81 72 63 53 44 36 29
10 21 6 3 5 7 4 29 52 22 6 29 25 18 15 5 9 9 26 49 61 73 64 56 82 86 84 85 86 92 97 106 107 99 94 85 76 71 63 55 48 41 31 26
4 4 15 11 7 11 19 46 50 4 8 40 35 6 18 11 18 30 47 64 69 71 71 70 73 80 76 79 86 85 93 99 93 87 80 71 61 55 50 47 40 35 31 29
6 9 4 5 5 8 41 36 12 16 44 34 3 48 52 48 53 53 55 63 66 70 69 74 83 79 74 80 92 85 81 85 82 76 69 63 51 49 46 41 38 33 32 32
3 9 6 4 3 19 43 33 41 46 42 16 48 50 68 55 54 56 61 66 69 74 77 78 85 81 73 68 73 73 60 61 66 60 54 54 52 45 38 36 38 39 33 30
10 13 6 8 7 19 47 50 53 19 36 44 56 64 67 70 68 64 65 68 72 70 75 76 76 78 69 62 61 63 39 43 49 52 53 46 43 47 45 41 37 33 30 25
7 18 14 8 15 15 46 56 50 41 49 55 56 62 65 73 66 76 78 77 75 78 75 70 69 65 62 54 52 44 38 37 41 42 42 41 41 41 43 40 33 28 27 18
14 9 7 9 35 12 33 52 59 58 55 60 70 65 62 80 70 73 71 67 67 63 56 60 59 51 42 41 41 37 30 23 26 33 32 31 31 34 34 35 39 33 23 21
Wind_Direction_500mb
212 175 229 206 211 231 255 265 266 262 286 323 276 282 289 272 253 252 248 253 254 254 240 203 205 213 222 228 223 214 208 207 205 204 207 209 209 208 213 210 205 204 205 207
271 226 215 216 226 229 239 252 263 272 264 258 272 277 276 261 259 248 243 248 246 249 245 206 194 196 207 210 216 219 214 207 206 206 208 212 212 215 218 212 206 206 206 208
240 236 218 215 227 232 237 243 254 253 265 257 273 277 269 253 258 250 251 250 253 247 245 218 197 203 209 208 210 215 216 214 210 210 212 211 213 218 217 216 214 211 209 214
279 299 261 240 236 218 247 238 263 292 240 247 154 277 262 242 242 230 242 244 244 245 247 241 230 214 206 205 206 208 213 216 215 216 218 214 215 216 219 217 214 216 214 213
239 300 308 283 252 212 257 136 240 284 302 279 261 272 271 180 244 247 235 242 240 248 246 241 240 232 220 209 202 205 209 215 216 218 224 222 222 228 226 220 217 220 220 220
247 224 227 284 273 242 150 227 291 242 238 231 231 194 265 238 205 245 253 244 244 240 248 249 246 233 224 220 214 209 208 213 216 219 226 224 227 230 226 224 219 217 219 219
320 254 237 215 280 260 166 118 275 248 211 234 226 213 248 288 259 227 243 261 265 262 264 261 244 235 227 218 217 216 213 210 215 219 222 222 226 232 233 234 223 218 220 224
270 300 214 211 218 232 193 197 184 218 226 276 226 214 258 219 252 246 257 265 268 270 266 263 254 241 233 222 224 222 218 216 213 215 221 224 225 229 230 236 234 228 226 217
291 259 289 302 250 175 191 193 222 199 199 293 206 263 281 204 251 231 243 251 266 278 270 269 260 247 231 220 225 227 220 212 214 216 221 225 225 224 229 234 232 227 197 201
263 279 260 269 316 245 198 174 115 273 179 220 240 230 233 357 284 205 318 293 289 284 270 260 257 250 235 227 229 229 223 214 212 214 220 225 228 219 225 225 228 215 193 193
258 214 256 320 202 231 189 180 74 126 138 214 242 252 218 210 224 271 277 283 295 294 287 267 252 249 253 246 231 223 218 213 214 212 217 220 214 216 218 211 216 227 218 210
334 306 252 244 357 242 111 169 169 144 190 236 262 255 181 165 202 220 275 294 301 298 290 274 260 249 247 244 237 221 211 206 215 212 214 208 205 209 216 203 200 214 215 203
337 308 331 333 354 29 57 121 117 92 171 237 203 271 192 237 235 218 268 304 294 296 292 271 254 246 242 235 233 222 208 200 201 205 204 200 199 207 207 193 199 199 202 189
288 265 206 209 193 139 272 220 201 162 208 268 241 264 256 300 308 293 272 300 297 284 284 278 261 245 231 226 216 200 184 189 191 199 199 194 193 193 191 186 191 190 181 179
227 280 291 271 278 279 263 263 259 234 232 235 257 272 270 253 274 277 303 308 292 284 290 281 235 214 202 189 175 176 177 182 190 189 190 182 182 180 182 180 178 179 180 174
351 298 332 285 260 261 273 269 257 247 248 242 255 275 277 272 271 305 298 296 294 325 286 163 164 157 159 161 160 166 169 175 179 180 179 170 168 170 168 169 170 167 169 170
297 311 337 266 334 311 281 260 258 261 262 247 230 241 293 306 295 293 311 283 21 45 116 129 135 138 152 153 156 162 166 172 167 170 160 162 164 166 162 160 162 165 168 170
251 283 271 286 332 313 83 41 339 324 360 242 212 226 117 99 58 30 27 147 92 91 99 95 126 136 139 146 147 152 161 156 157 157 159 158 159 160 157 157 163 165 168 172
218 212 261 273 261 279 243 44 1 336 308 11 122 128 121 102 72 31 33 80 99 137 123 93 118 132 140 144 146 156 147 149 151 152 152 155 159 154 155 157 162 165 169 166
226 200 217 300 346 289 340 339 325 304 254 11 358 138 153 307 71 22 55 79 84 102 116 112 119 127 132 133 138 140 143 146 144 146 147 150 152 151 151 156 159 158 160 158
328 185 231 266 251 273 353 330 320 231 326 326 320 18 68 76 81 87 83 86 94 101 112 120 120 117 120 130 137 130 139 136 138 140 141 141 143 145 149 150 153 155 154 150
336 311 15 310 323 314 342 328 6 298 299 298 143 107 98 96 96 91 89 88 98 103 108 112 108 109 114 120 126 121 120 131 136 137 136 135 141 145 146 152 148 148 150 146
356 347 308 324 296 288 313 303 301 293 281 299 118 114 110 98 93 93 92 94 100 105 101 107 108 105 100 101 106 107 113 125 126 131 131 140 140 141 145 150 148 147 149 148
335 355 341 315 298 325 342 351 350 35 120 124 122 117 111 104 102 93 89 90 95 98 100 102 100 96 95 95 88 93 117 122 114 134 131 129 137 140 140 141 144 149 151 145
312 317 327 314 337 346 6 7 23 79 102 105 106 113 113 111 103 105 102 100 98 98 98 99 98 103 108 112 116 123 122 118 136 120 119 130 134 140 144 145 145 152 144 128
320 339 9 17 7 1 17 28 56 67 83 95 105 99 101 108 104 107 106 110 107 105 106 103 104 108 113 118 118 117 120 127 117 117 124 132 139 145 154 157 154 153 154 146
Wind_Speed_850mb
12 8 23 15 21 22 16 25 28 22 13 14 30 42 23 14 30 27 48 56 56 54 53 61 76 88 94 88 85 87 87 81 78 79 76 74 70 64 58 57 45 43 39 35
5 21 20 26 20 21 21 26 32 30 30 27 41 55 32 24 28 32 42 55 65 67 58 52 75 76 88 92 92 97 93 88 82 78 73 73 70 65 56 50 50 43 40 37
28 17 27 23 27 27 28 28 26 21 23 24 33 49 29 18 28 47 54 46 58 74 75 65 60 79 88 88 88 90 97 95 89 80 76 74 68 65 61 58 56 53 46 43
14 6 22 21 19 17 25 22 18 23 7 10 9 28 20 11 25 21 40 53 58 64 76 82 77 71 85 82 76 81 88 98 97 89 83 82 78 74 73 67 62 58 53 41
14 22 21 24 25 14 30 10 8 16 12 5 9 8 8 13 14 17 20 50 55 56 62 80 84 83 80 78 80 81 76 91 104 99 89 86 81 73 72 69 59 54 51 44
28 9 6 12 23 22 3 7 2 2 9 11 23 14 19 18 19 13 13 40 45 47 41 59 74 79 87 85 83 84 87 84 99 104 94 93 84 74 74 66 70 65 58 48
22 30 18 18 35 21 9 9 3 7 12 12 17 15 33 17 19 22 23 39 59 57 51 48 57 73 90 92 86 86 90 96 101 106 103 102 90 78 73 72 76 75 66 48
7 11 18 25 44 25 18 26 10 13 7 5 3 11 24 32 28 45 49 55 56 65 62 53 53 65 71 85 85 90 87 93 100 101 104 103 89 80 75 68 69 67 63 52
9 10 14 13 10 13 9 16 20 8 4 2 9 14 34 13 22 15 24 45 45 45 51 51 56 60 73 82 76 82 91 93 92 103 102 102 96 81 65 52 49 48 38 40
10 12 17 11 7 9 10 9 7 3 9 9 10 11 27 6 5 6 7 14 26 33 44 43 44 52 67 80 84 77 79 89 92 104 104 99 101 67 58 48 55 46 34 33
14 14 8 6 9 4 3 3 5 6 6 9 3 14 10 15 8 8 12 22 33 41 49 54 56 52 46 58 79 86 84 83 88 99 103 100 69 67 56 49 45 43 36 43
6 10 8 13 7 4 4 1 8 7 7 8 5 21 9 11 10 10 14 32 38 44 57 58 57 54 56 63 69 86 88 82 79 88 97 82 68 64 60 54 46 44 44 44
8 5 7 12 12 7 8 2 4 5 1 18 5 12 8 11 12 15 13 35 36 39 49 49 51 63 62 66 71 75 91 91 93 92 92 78 69 65 60 54 52 51 47 48
13 8 9 8 6 3 6 10 8 9 6 7 21 40 26 20 22 17 14 36 39 31 33 39 46 57 68 71 79 77 81 83 90 90 86 81 74 66 61 58 57 55 53 48
5 9 6 16 20 19 25 30 27 25 28 19 16 18 26 17 16 14 27 42 43 30 31 22 36 54 64 70 73 84 86 85 90 86 89 83 76 70 62 62 55 52 44 42
11 7 7 10 23 20 25 21 21 27 30 30 33 48 36 29 18 15 32 27 18 11 29 21 40 60 71 81 88 96 92 93 96 93 92 88 80 72 72 66 60 55 49 43
9 4 6 8 13 22 15 9 12 17 25 23 30 25 22 6 6 8 16 3 13 32 23 37 53 66 72 70 88 102 97 100 100 92 90 85 86 76 76 69 62 51 46 38
11 4 6 9 13 5 8 18 17 28 16 16 15 6 11 15 22 33 23 14 10 43 52 43 77 74 69 73 89 95 99 108 108 105 99 91 84 82 75 64 56 51 41 32
29 10 6 6 4 15 0 9 14 14 13 32 7 15 19 28 38 39 38 34 31 54 39 56 79 84 83 79 78 84 97 107 110 111 105 94 87 81 72 63 53 44 36 29
10 21 6 3 5 7 4 29 52 22 6 29 25 18 15 5 9 9 26 49 61 73 64 56 82 86 84 85 86 92 97 106 107 99 94 85 76 71 63 55 48 41 31 26
4 4 15 11 7 11 19 46 50 4 8 40 35 6 18 11 18 30 47 64 69 71 71 70 73 80 76 79 86 85 93 99 93 87 80 71 61 55 50 47 40 35 31 29
6 9 4 5 5 8 41 36 12 16 44 34 3 48 52 48 53 53 55 63 66 70 69 74 83 79 74 80 92 85 81 85 82 76 69 63 51 49 46 41 38 33 32 32
3 9 6 4 3 19 43 33 41 46 42 16 48 50 68 55 54 56 61 66 69 74 77 78 85 81 73 68 73 73 60 61 66 60 54 54 52 45 38 36 38 39 33 30
10 13 6 8 7 19 47 50 53 19 36 44 56 64 67 70 68 64 65 68 72 70 75 76 76 78 69 62 61 63 39 43 49 52 53 46 43 47 45 41 37 33 30 25
7 18 14 8 15 15 46 56 50 41 49 55 56 62 65 73 66 76 78 77 75 78 75 70 69 65 62 54 52 44 38 37 41 42 42 41 41 41 43 40 33 28 27 18
14 9 7 9 35 12 33 52 59 58 55 60 70 65 62 80 70 73 71 67 67 63 56 60 59 51 42 41 41 37 30 23 26 33 32 31 31 34 34 35 39 33 23 21
Wind_Direction_850mb
212 175 229 206 211 231 255 265 266 262 286 323 276 282 289 272 253 252 248 253 254 254 240 203 205 213 222 228 223 214 208 207 205 204 207 209 209 208 213 210 205 204 205 207
271 226 215 216 226 229 239 252 263 272 264 258 272 277 276 261 259 248 243 248 246 249 245 206 194 196 207 210 216 219 214 207 206 206 208 212 212 215 218 212 206 206 206 208
240 236 218 215 227 232 237 243 254 253 265 257 273 277 269 253 258 250 251 250 253 247 245 218 197 203 209 208 210 215 216 214 210 210 212 211 213 218 217 216 214 211 209 214
279 299 261 240 236 218 247 238 263 292 240 247 154 277 262 242 242 230 242 244 244 245 247 241 230 214 206 205 206 208 213 216 215 216 218 214 215 216 219 217 214 216 214 213
239 300 308 283 252 212 257 136 240 284 302 279 261 272 271 180 244 247 235 242 240 248 246 241 240 232 220 209 202 205 209 215 216 218 224 222 222 228 226 220 217 220 220 220
247 224 227 284 273 242 150 227 291 242 238 231 231 194 265 238 205 245 253 244 244 240 248 249 246 233 224 220 214 209 208 213 216 219 226 224 227 230 226 224 219 217 219 219
320 254 237 215 280 260 166 118 275 248 211 234 226 213 248 288 259 227 243 261 265 262 264 261 244 235 227 218 217 216 213 210 215 219 222 222 226 232 233 234 223 218 220 224
270 300 214 211 218 232 193 197 184 218 226 276 226 214 258 219 252 246 257 265 268 270 266 263 254 241 233 222 224 222 218 216 213 215 221 224 225 229 230 236 234 228 226 217
291 259 289 302 250 175 191 193 222 199 199 293 206 263 281 204 251 231 243 251 266 278 270 269 260 247 231 220 225 227 220 212 214 216 221 225 225 224 229 234 232 227 197 201
263 279 260 269 316 245 198 174 115 273 179 220 240 230 233 357 284 205 318 293 289 284 270 260 257 250 235 227 229 229 223 214 212 214 220 225 228 219 225 225 228 215 193 193
258 214 256 320 202 231 189 180 74 126 138 214 242 252 218 210 224 271 277 283 295 294 287 267 252 249 253 246 231 223 218 213 214 212 217 220 214 216 218 211 216 227 218 210
334 306 252 244 357 242 111 169 169 144 190 236 262 255 181 165 202 220 275 294 301 298 290 274 260 249 247 244 237 221 211 206 215 212 214 208 205 209 216 203 200 214 215 203
337 308 331 333 354 29 57 121 117 92 171 237 203 271 192 237 235 218 268 304 294 296 292 271 254 246 242 235 233 222 208 200 201 205 204 200 199 207 207 193 199 199 202 189
288 265 206 209 193 139 272 220 201 162 208 268 241 264 256 300 308 293 272 300 297 284 284 278 261 245 231 226 216 200 184 189 191 199 199 194 193 193 191 186 191 190 181 179
227 280 291 271 278 279 263 263 259 234 232 235 257 272 270 253 274 277 303 308 292 284 290 281 235 214 202 189 175 176 177 182 190 189 190 182 182 180 182 180 178 179 180 174
351 298 332 285 260 261 273 269 257 247 248 242 255 275 277 272 271 305 298 296 294 325 286 163 164 157 159 161 160 166 169 175 179 180 179 170 168 170 168 169 170 167 169 170
297 311 337 266 334 311 281 260 258 261 262 247 230 241 293 306 295 293 311 283 21 45 116 129 135 138 152 153 156 162 166 172 167 170 160 162 164 166 162 160 162 165 168 170
251 283 271 286 332 313 83 41 339 324 360 242 212 226 117 99 58 30 27 147 92 91 99 95 126 136 139 146 147 152 161 156 157 157 159 158 159 160 157 157 163 165 168 172
218 212 261 273 261 279 243 44 1 336 308 11 122 128 121 102 72 31 33 80 99 137 123 93 118 132 140 144 146 156 147 149 151 152 152 155 159 154 155 157 162 165 169 166
226 200 217 300 346 289 340 339 325 304 254 11 358 138 153 307 71 22 55 79 84 102 116 112 119 127 132 133 138 140 143 146 144 146 147 150 152 151 151 156 159 158 160 158
328 185 231 266 251 273 353 330 320 231 326 326 320 18 68 76 81 87 83 86 94 101 112 120 120 117 120 130 137 130 139 136 138 140 141 141 143 145 149 150 153 155 154 150
336 311 15 310 323 314 342 328 6 298 299 298 143 107 98 96 96 91 89 88 98 103 108 112 108 109 114 120 126 121 120 131 136 137 136 135 141 145 146 152 148 148 150 146
356 347 308 324 296 288 313 303 301 293 281 299 118 114 110 98 93 93 92 94 100 105 101 107 108 105 100 101 106 107 113 125 126 131 131 140 140 141 145 150 148 147 149 148
335 355 341 315 298 325 342 351 350 35 120 124 122 117 111 104 102 93 89 90 95 98 100 102 100 96 95 95 88 93 117 122 114 134 131 129 137 140 140 141 144 149 151 145
312 317 327 314 337 346 6 7 23 79 102 105 106 113 113 111 103 105 102 100 98 98 98 99 98 103 108 112 116 123 122 118 136 120 119 130 134 140 144 145 145 152 144 128
320 339 9 17 7 1 17 28 56 67 83 95 105 99 101 108 104 107 106 110 107 105 106 103 104 108 113 118 118 117 120 127 117 117 124 132 139 145 154 157 154 153 154 146